• In Hungary
  • List of Countries
  • For 7 days
  • Water Temperature
  • Satellite Maps
  • Weather Map
  • News
  • Weather Widgets
  • user-avatar
    Login

    Hourly Weather Hudayberdino

    Today, 19 July, Thursday

    Time Temperature Precipitation Wind Pressure Humidity
    00:00 +16°C° 0 mm 2 mps 714 mmHg 95%
    01:00 +15°C° 0 mm 1 mps 714 mmHg 96%
    02:00 +15°C° 0.1 mm 1 mps 714 mmHg 96%
    03:00 +15°C° 0.1 mm 1 mps 714 mmHg 97%
    04:00 +15°C° 0 mm 1 mps 714 mmHg 96%
    05:00 +16°C° 0.1 mm 1 mps 714 mmHg 94%
    06:00 +18°C° 0.1 mm 1 mps 715 mmHg 92%
    07:00 +18°C° 0.1 mm 2 mps 715 mmHg 91%
    08:00 +21°C° 0.4 mm 1 mps 715 mmHg 86%
    09:00 +22°C° 0.4 mm 1 mps 715 mmHg 82%
    10:00 +24°C° 0.4 mm 1 mps 715 mmHg 78%
    11:00 +24°C° 0.8 mm 1 mps 715 mmHg 76%
    12:00 +25°C° 0.8 mm 1 mps 715 mmHg 75%
    13:00 +25°C° 0.8 mm 1 mps 715 mmHg 73%
    14:00 +26°C° 0.7 mm 1 mps 715 mmHg 73%
    15:00 +26°C° 0.7 mm 1 mps 715 mmHg 72%
    16:00 +26°C° 0.7 mm 1 mps 715 mmHg 72%
    17:00 +25°C° 0.5 mm 1 mps 715 mmHg 77%
    18:00 +24°C° 0.5 mm 1 mps 715 mmHg 82%
    19:00 +21°C° 0.5 mm 0 mps 715 mmHg 87%
    20:00 +20°C° 0.6 mm 0 mps 715 mmHg 89%
    21:00 +18°C° 0.6 mm 0 mps 715 mmHg 90%
    22:00 +19°C° 0.6 mm 1 mps 715 mmHg 92%
    23:00 +19°C° 0.1 mm 1 mps 715 mmHg 93%

    Tomorrow, 20 July, Friday

    Time Temperature Precipitation Wind Pressure Humidity
    00:00 +18°C° 0.1 mm 1 mps 715 mmHg 93%
    01:00 +18°C° 0.1 mm 1 mps 715 mmHg 94%
    02:00 +16°C° 0 mm 1 mps 715 mmHg 94%
    03:00 +16°C° 0 mm 1 mps 715 mmHg 94%
    04:00 +16°C° 0 mm 1 mps 715 mmHg 95%
    05:00 +18°C° 0 mm 1 mps 715 mmHg 93%
    06:00 +19°C° 0 mm 1 mps 715 mmHg 92%
    07:00 +20°C° 0 mm 1 mps 716 mmHg 91%
    08:00 +22°C° 0.2 mm 1 mps 716 mmHg 85%
    09:00 +23°C° 0.2 mm 1 mps 716 mmHg 79%
    10:00 +25°C° 0.2 mm 2 mps 716 mmHg 73%
    11:00 +26°C° 0.5 mm 2 mps 716 mmHg 68%
    12:00 +27°C° 0.5 mm 2 mps 716 mmHg 63%
    13:00 +28°C° 0.5 mm 2 mps 716 mmHg 58%
    14:00 +27°C° 1.1 mm 2 mps 716 mmHg 66%
    15:00 +26°C° 1.1 mm 2 mps 716 mmHg 75%
    16:00 +26°C° 1.1 mm 2 mps 716 mmHg 83%
    17:00 +24°C° 0.5 mm 2 mps 716 mmHg 86%
    18:00 +23°C° 0.5 mm 2 mps 716 mmHg 88%
    19:00 +21°C° 0.5 mm 2 mps 716 mmHg 91%
    20:00 +20°C° 0.3 mm 2 mps 716 mmHg 92%
    21:00 +19°C° 0.3 mm 2 mps 716 mmHg 94%
    22:00 +18°C° 0.3 mm 2 mps 716 mmHg 95%
    23:00 +18°C° 0 mm 2 mps 716 mmHg 96%

    Day after tomorrow, 21 July, Saturday

    Time Temperature Precipitation Wind Pressure Humidity
    00:00 +17°C° 0 mm 2 mps 716 mmHg 96%
    01:00 +17°C° 0 mm 2 mps 716 mmHg 96%
    02:00 +17°C° 0 mm 3 mps 716 mmHg 96%
    03:00 +17°C° 0 mm 3 mps 716 mmHg 96%
    04:00 +17°C° 0 mm 3 mps 716 mmHg 96%
    05:00 +17°C° 0 mm 3 mps 717 mmHg 93%
    06:00 +18°C° 0 mm 3 mps 717 mmHg 90%
    07:00 +18°C° 0 mm 4 mps 717 mmHg 88%
    08:00 +19°C° 0 mm 4 mps 717 mmHg 80%
    09:00 +20°C° 0 mm 4 mps 717 mmHg 73%
    10:00 +22°C° 0 mm 5 mps 718 mmHg 65%
    11:00 +23°C° 0 mm 5 mps 718 mmHg 62%
    12:00 +25°C° 0 mm 5 mps 718 mmHg 58%
    13:00 +26°C° 0 mm 5 mps 718 mmHg 54%
    14:00 +25°C° 0 mm 5 mps 718 mmHg 56%
    15:00 +25°C° 0 mm 5 mps 718 mmHg 57%
    16:00 +25°C° 0 mm 5 mps 718 mmHg 59%
    17:00 +23°C° 0 mm 5 mps 718 mmHg 63%
    18:00 +22°C° 0 mm 5 mps 717 mmHg 67%
    19:00 +20°C° 0 mm 4 mps 717 mmHg 71%
    20:00 +19°C° 0 mm 4 mps 717 mmHg 73%
    21:00 +17°C° 0 mm 5 mps 718 mmHg 74%
    22:00 +16°C° 0 mm 5 mps 718 mmHg 75%
    23:00 +16°C° 0 mm 5 mps 717 mmHg 76%

    22 July, Sunday

    Time Temperature Precipitation Wind Pressure Humidity
    00:00 +16°C° 0 mm 5 mps 717 mmHg 78%
    01:00 +15°C° 0 mm 5 mps 717 mmHg 79%
    02:00 +15°C° 0 mm 5 mps 717 mmHg 80%
    03:00 +15°C° 0 mm 5 mps 717 mmHg 81%
    04:00 +15°C° 0 mm 5 mps 717 mmHg 83%
    05:00 +15°C° 0 mm 5 mps 717 mmHg 79%
    06:00 +16°C° 0 mm 5 mps 717 mmHg 76%
    07:00 +16°C° 0 mm 6 mps 718 mmHg 73%
    08:00 +17°C° 0 mm 6 mps 718 mmHg 67%
    09:00 +19°C° 0 mm 6 mps 718 mmHg 60%
    10:00 +21°C° 0 mm 6 mps 718 mmHg 53%
    11:00 +21°C° 0 mm 6 mps 718 mmHg 50%
    12:00 +22°C° 0 mm 6 mps 718 mmHg 47%
    13:00 +22°C° 0 mm 6 mps 718 mmHg 44%
    14:00 +22°C° 0 mm 6 mps 718 mmHg 45%
    15:00 +22°C° 0 mm 6 mps 718 mmHg 46%
    16:00 +22°C° 0 mm 6 mps 718 mmHg 47%
    17:00 +20°C° 0 mm 5 mps 718 mmHg 52%
    18:00 +19°C° 0 mm 5 mps 718 mmHg 57%
    19:00 +18°C° 0 mm 4 mps 718 mmHg 62%
    20:00 +17°C° 0 mm 4 mps 718 mmHg 64%
    21:00 +14°C° 0 mm 4 mps 718 mmHg 66%
    22:00 +13°C° 0 mm 4 mps 718 mmHg 68%
    23:00 +13°C° 0 mm 4 mps 718 mmHg 68%

    23 July, Monday

    Time Temperature Precipitation Wind Pressure Humidity
    00:00 +12°C° 0 mm 4 mps 719 mmHg 68%
    01:00 +11°C° 0 mm 4 mps 719 mmHg 69%
    02:00 +11°C° 0 mm 4 mps 719 mmHg 71%
    03:00 +10°C° 0 mm 4 mps 719 mmHg 73%
    04:00 +10°C° 0 mm 4 mps 719 mmHg 76%
    05:00 +11°C° 0 mm 4 mps 719 mmHg 72%
    06:00 +12°C° 0 mm 4 mps 719 mmHg 67%
    07:00 +13°C° 0 mm 5 mps 720 mmHg 63%
    08:00 +14°C° 0 mm 5 mps 720 mmHg 57%
    09:00 +16°C° 0 mm 5 mps 720 mmHg 52%
    10:00 +19°C° 0 mm 5 mps 720 mmHg 46%
    11:00 +19°C° 0 mm 5 mps 720 mmHg 44%
    12:00 +20°C° 0 mm 4 mps 720 mmHg 42%
    13:00 +21°C° 0 mm 4 mps 720 mmHg 41%
    14:00 +22°C° 0 mm 4 mps 720 mmHg 42%
    15:00 +22°C° 0 mm 4 mps 720 mmHg 43%
    16:00 +22°C° 0 mm 4 mps 720 mmHg 44%
    17:00 +21°C° 0 mm 3 mps 720 mmHg 52%
    18:00 +19°C° 0 mm 3 mps 720 mmHg 59%
    19:00 +18°C° 0 mm 2 mps 720 mmHg 66%
    20:00 +16°C° 0 mm 2 mps 720 mmHg 72%
    21:00 +14°C° 0 mm 2 mps 720 mmHg 77%
    22:00 +13°C° 0 mm 2 mps 720 mmHg 83%
    23:00 +12°C° 0 mm 2 mps 720 mmHg 85%

    24 July, Tuesday

    Time Temperature Precipitation Wind Pressure Humidity
    00:00 +10°C° 0 mm 2 mps 720 mmHg 88%
    01:00 +9°C° 0 mm 2 mps 721 mmHg 90%
    02:00 +9°C° 0 mm 2 mps 721 mmHg 91%
    03:00 +8°C° 0 mm 2 mps 721 mmHg 91%
    04:00 +8°C° 0 mm 2 mps 721 mmHg 92%
    05:00 +10°C° 0 mm 2 mps 721 mmHg 84%
    06:00 +13°C° 0 mm 2 mps 722 mmHg 76%
    07:00 +15°C° 0 mm 2 mps 722 mmHg 69%
    08:00 +17°C° 0 mm 2 mps 722 mmHg 61%
    09:00 +19°C° 0 mm 2 mps 722 mmHg 54%
    10:00 +21°C° 0 mm 3 mps 723 mmHg 46%
    11:00 +22°C° 0 mm 3 mps 723 mmHg 44%
    12:00 +24°C° 0 mm 2 mps 723 mmHg 41%
    13:00 +25°C° 0 mm 2 mps 723 mmHg 38%
    14:00 +25°C° 0 mm 2 mps 723 mmHg 38%
    15:00 +25°C° 0 mm 2 mps 722 mmHg 39%
    16:00 +25°C° 0 mm 2 mps 722 mmHg 39%
    17:00 +24°C° 0 mm 2 mps 722 mmHg 49%
    18:00 +23°C° 0 mm 1 mps 722 mmHg 59%
    19:00 +21°C° 0 mm 1 mps 722 mmHg 69%
    20:00 +20°C° 0 mm 1 mps 722 mmHg 74%
    21:00 +18°C° 0 mm 1 mps 722 mmHg 79%
    22:00 +15°C° 0 mm 1 mps 722 mmHg 84%
    23:00 +14°C° 0 mm 1 mps 722 mmHg 85%
    Show more